Location: Unspecified
(47.1121°N, 116.3927°W)
Time: 20:10:38
(UTC-07:00)

CZ-3 Stage 3 - Visible Passes

Search period start: 27 May 2018 00:00
Search period end: 06 June 2018 00:00
Orbit: 420 x 34776 km, 30.9° (Epoch: 27 May)

Date Brightness Start Highest point End Pass type
(mag) Time Alt. Az. Time Alt. Az. Time Alt. Az.
28 May 7.7 00:59:04 10° S 08:35:16 55° S 08:52:49 10° ESE visible
28 May 9.1 23:46:17 10° SE 04:19:24 41° SE 05:11:56 10° E visible
31 May 7.8 00:56:40 12° S 08:25:24 56° S 08:43:12 10° ESE visible
31 May 9.0 23:30:55 10° SE 04:08:55 41° SE 05:02:21 10° E visible
03 Jun 7.8 00:54:08 14° S 08:15:29 57° S 08:33:32 10° ESE visible
03 Jun 8.9 23:15:36 10° SE 03:58:23 42° SE 04:52:43 10° E visible
